This demonstration page uses our WeatherBlox Daily Observations layout. Learn more.

Left ArrowRight Arrow

Hourly Observations for July 4, 2021

Temp ( °F °C ) Dew Point ( °F °C ) Humidity (%) Winds ( mph kmh ) Pressure ( in mb ) Visibility ( mi km ) Precip ( " mm )
12:53 am 00:53 Clear 76 24.4 65 18.3 69 69 W 7 11 29.89 1012 10 16 0.00 0.00
1:53 am 01:53 Clear 75 23.9 65 18.3 71 71 N 3 6 29.88 1012 10 16 0.00 0.00
2:53 am 02:53 Clear 75 23.9 66 18.9 74 74 Calm 29.85 1011 10 16 0.00 0.00
3:53 am 03:53 Clear 74 23.3 69 20.6 85 85 ENE 5 7 29.85 1011 10 16 0.00 0.00
4:53 am 04:53 Clear 73 22.8 69 20.6 87 87 E 6 9 29.84 1011 10 16 0.00 0.00
5:53 am 05:53 Clear 74 23.3 69 20.6 85 85 ESE 5 7 29.85 1011 10 16 0.00 0.00
6:53 am 06:53 Sunny 73 22.8 69 20.6 87 87 E 5 7 29.86 1011 10 16 0.00 0.00
7:53 am 07:53 Sunny 74 23.3 69 20.6 85 85 ESE 6 9 29.88 1012 10 16 0.00 0.00
8:53 am 08:53 Sunny 77 25 68 20 74 74 SSE 8 13 29.88 1012 10 16 0.00 0.00
9:53 am 09:53 Sunny 79 26.1 67 19.4 67 67 SSE 8 13 29.88 1012 10 16 0.00 0.00
10:53 am 10:53 Sunny 81 27.2 68 20 65 65 VRB 5 7 29.86 1011 10 16 0.00 0.00
11:53 am 11:53 Sunny 85 29.4 67 19.4 55 55 VRB 3 6 29.86 1011 10 16 0.00 0.00
12:53 pm 12:53 Sunny 87 30.6 66 18.9 50 50 SSW 3 6 29.84 1011 10 16 0.00 0.00
1:53 pm 13:53 Sunny 90 32.2 65 18.3 44 44 Calm 29.82 1010 10 16 0.00 0.00
2:53 pm 14:53 Mostly Sunny 91 32.8 65 18.3 42 42 Calm 29.80 1009 10 16 0.00 0.00
3:53 pm 15:53 Mostly Sunny 93 33.9 64 17.8 38 38 Calm 29.77 1008 10 16 0.00 0.00
4:53 pm 16:53 Sunny 94 34.4 62 16.7 35 35 SW 5 7 29.75 1008 10 16 0.00 0.00
5:53 pm 17:53 Sunny 96 35.6 62 16.7 32 32 N 3 6 29.73 1007 10 16 0.00 0.00
6:53 pm 18:53 Mostly Cloudy 94 34.4 64 17.8 37 37 SE 12 19 29.72 1007 10 16 0.00 0.00
7:53 pm 19:53 Sunny 93 33.9 64 17.8 38 38 SE 13 20 29.74 1007 10 16 0.00 0.00
8:53 pm 20:53 Sunny 90 32.2 64 17.8 42 42 ESE 10 17 29.75 1008 10 16 0.00 0.00
9:53 pm 21:53 Clear 87 30.6 64 17.8 46 46 E 9 15 29.77 1008 10 16 0.00 0.00
10:53 pm 22:53 Clear 85 29.4 66 18.9 53 53 E 10 17 29.81 1010 10 16 0.00 0.00
11:53 pm 23:53 Clear 83 28.3 67 19.4 59 59 SE 14 22 29.81 1010 10 16 0.00 0.00

Powered by AerisWeather